New Cumberland, PA

3:06 AM EST on February 14, 2016 (GMT -0500)
Capital City

Weather History for KCXY - October, 2011

Change the Weather History Date:

Monday, October 10, 2011

  Actual Average Record
Temperature  
Mean Temperature 64 °F -  
Max Temperature 79 °F 64 °F 89 °F (1939)
Min Temperature 51 °F 45 °F 30 °F (1895)
Growing Degree Days 14 (Base 50)    
Moisture  
Dew Point 54 °F    
Average Humidity 75    
Maximum Humidity 96    
Minimum Humidity 42    
Precipitation  
Precipitation 0.01 in - - ()
Sea Level Pressure  
Sea Level Pressure 30.26 in    
Wind  
Wind Speed 2 mph (NW)    
Max Wind Speed 6 mph    
Max Gust Speed -    
Visibility 9 miles    
Events      
Averages and records for this station are not official NWS values.
T = Trace of Precipitation, MM = Missing Value Source: NWS Daily Summary

Daily Weather History Graph

Daily Weather History Graph

Search for Another Location

Airport or City:

Trip Planner

Search our weather history database for the weather conditions in past years. The results will help you decide how hot, cold, wet, or windy it might be!

Date:

Astronomy

Oct. 10, 2011 Rise Set
Actual Time 7:12 AM EDT 6:35 PM EDT
Civil Twilight 6:45 AM EDT 7:02 PM EDT
Nautical Twilight 6:13 AM EDT 7:34 PM EDT
Astronomical Twilight 5:42 AM EDT 8:05 PM EDT
Moon 5:38 PM EDT (10/10) 5:51 AM EDT (10/10)
Length of Visible Light 12h 17m
Length of Day
11h 23m
Waxing Gibbous, 98% of the Moon is Illuminated
Oct 10
Waxing Gibbous
Oct 11
Full
Oct 19
Last Quarter
Oct 26
New
Nov 2
First Quarter

Hourly Weather History & Observations

Time (EDT) Temp. Dew Point Humidity Pressure Visibility Wind Dir Wind Speed Gust Speed Precip Events Conditions
12:56 AM 55.9 °F 54.0 °F 93% 30.34 in 7.0 mi Calm Calm - N/A   Clear
1:56 AM 55.0 °F 53.1 °F 93% 30.34 in 6.0 mi Calm Calm - N/A   Clear
3:56 AM 57.0 °F 53.1 °F 87% 30.31 in 9.0 mi Variable 3.5 mph - N/A   Clear
4:56 AM 55.9 °F 52.0 °F 87% 30.32 in 7.0 mi NNW 3.5 mph - N/A   Clear
5:56 AM 51.1 °F 50.0 °F 96% 30.31 in 3.0 mi NW 3.5 mph - N/A   Clear
7:56 AM 53.1 °F 50.0 °F 89% 30.32 in 8.0 mi Calm Calm - N/A   Clear
10:56 AM 69.1 °F 55.9 °F 63% 30.32 in 10.0 mi Calm Calm - N/A   Clear
11:56 AM 72.0 °F 55.9 °F 57% 30.31 in 10.0 mi North 4.6 mph - N/A   Clear
12:56 PM 75.0 °F 53.1 °F 46% 30.28 in 10.0 mi NNW 5.8 mph - N/A   Clear
1:56 PM 75.9 °F 54.0 °F 46% 30.26 in 10.0 mi North 5.8 mph - N/A   Clear
2:56 PM 77.0 °F 53.1 °F 43% 30.23 in 10.0 mi NNW 3.5 mph - N/A   Clear
3:56 PM 78.1 °F 53.1 °F 42% 30.22 in 10.0 mi NNW 3.5 mph - N/A   Clear
5:56 PM 73.9 °F 55.9 °F 53% 30.20 in 10.0 mi Calm Calm - N/A   Clear
6:56 PM 64.9 °F 59.0 °F 81% 30.20 in 10.0 mi SW 3.5 mph - N/A   Clear
7:56 PM 62.1 °F 57.0 °F 84% 30.20 in 10.0 mi SSW 3.5 mph - N/A   Clear
8:56 PM 59.0 °F 55.0 °F 87% 30.20 in 10.0 mi West 3.5 mph - N/A   Clear
9:56 PM 57.9 °F 55.0 °F 90% 30.19 in 10.0 mi Calm Calm - N/A   Clear
10:56 PM 57.9 °F 55.0 °F 90% 30.20 in 10.0 mi Calm Calm - N/A   Clear
11:56 PM 57.9 °F 55.0 °F 90% 30.20 in 10.0 mi Calm Calm - N/A   Clear